Farmingdale, NY

5:58 PM EST on January 21, 2017 (GMT -0500)
Farmingdale

Weather History for KFRG - October, 2012

Change the Weather History Date:

Wednesday, October 17, 2012

  Actual Average Record
Temperature  
Mean Temperature 50 °F -  
Max Temperature 60 °F 60 °F 77 °F (1996)
Min Temperature 39 °F 45 °F 39 °F (2012)
Degree Days  
Heating Degree Days 16    
Moisture  
Dew Point 40 °F    
Average Humidity 75    
Maximum Humidity 89    
Minimum Humidity 48    
Precipitation  
Precipitation 0.00 in - - ()
Sea Level Pressure  
Sea Level Pressure 29.98 in    
Wind  
Wind Speed 3 mph (WNW)    
Max Wind Speed 9 mph    
Max Gust Speed -    
Visibility 10 miles    
Events      
Averages and records for this station are not official NWS values.
T = Trace of Precipitation, MM = Missing Value Source: NWS Daily Summary

Daily Weather History Graph

Daily Weather History Graph

Search for Another Location

Airport or City:

Trip Planner

Search our weather history database for the weather conditions in past years. The results will help you decide how hot, cold, wet, or windy it might be!

Date:

Astronomy

Oct. 17, 2012 Rise Set
Actual Time 7:07 AM EDT 6:09 PM EDT
Civil Twilight 6:39 AM EDT 6:37 PM EDT
Nautical Twilight 6:07 AM EDT 7:09 PM EDT
Astronomical Twilight 5:36 AM EDT 7:40 PM EDT
Moon 9:39 AM EDT (10/17) 7:42 PM EDT (10/17)
Length of Visible Light 11h 57m
Length of Day
11h 02m
Waxing Crescent, 7% of the Moon is Illuminated
Oct 17
Waxing Crescent
Oct 21
First Quarter
Oct 29
Full
Nov 6
Last Quarter
Nov 13
New

Hourly Weather History & Observations

Time (EDT) Temp. Windchill Dew Point Humidity Pressure Visibility Wind Dir Wind Speed Gust Speed Precip Events Conditions
12:53 AM 45.0 °F - 37.0 °F 74% 29.92 in 10.0 mi Calm Calm - N/A   Clear
1:53 AM 42.1 °F 38.4 °F 37.9 °F 85% 29.93 in 10.0 mi North 5.8 mph - N/A   Clear
2:53 AM 43.0 °F - 37.9 °F 82% 29.94 in 10.0 mi Calm Calm - N/A   Clear
3:53 AM 41.0 °F - 37.0 °F 86% 29.94 in 10.0 mi Calm Calm - N/A   Clear
4:53 AM 41.0 °F 39.0 °F 37.0 °F 86% 29.95 in 10.0 mi NW 3.5 mph - N/A   Clear
5:53 AM 41.0 °F - 37.0 °F 86% 29.96 in 10.0 mi Calm Calm - N/A   Clear
6:53 AM 39.9 °F - 37.0 °F 89% 29.98 in 10.0 mi Calm Calm - N/A   Clear
7:53 AM 41.0 °F 39.0 °F 37.9 °F 89% 30.00 in 10.0 mi WNW 3.5 mph - N/A   Clear
8:53 AM 48.0 °F - 39.9 °F 74% 30.00 in 10.0 mi NNW 4.6 mph - N/A   Clear
9:53 AM 51.1 °F - 39.0 °F 63% 30.03 in 10.0 mi NNW 9.2 mph - N/A   Clear
10:53 AM 54.0 °F - 39.0 °F 57% 30.01 in 10.0 mi Variable 6.9 mph - N/A   Clear
11:53 AM 55.0 °F - 39.0 °F 55% 30.01 in 10.0 mi NW 4.6 mph - N/A   Clear
12:53 PM 55.9 °F - 37.9 °F 51% 29.98 in 10.0 mi West 4.6 mph - N/A   Clear
3:53 PM 60.8 °F - 41.0 °F 48% 29.94 in 10.0 mi Calm Calm - N/A   Clear
4:55 PM 57.2 °F - 42.8 °F 59% 29.97 in 10.0 mi SSW 5.8 mph - N/A   Clear
6:53 PM 54.0 °F - 45.0 °F 72% 29.98 in 10.0 mi SSW 6.9 mph - N/A   Clear
7:53 PM 54.0 °F - 46.0 °F 75% 29.99 in 10.0 mi SW 5.8 mph - N/A   Clear
8:53 PM 53.1 °F - 46.0 °F 77% 30.00 in 10.0 mi SSE 3.5 mph - N/A   Clear
9:53 PM 50.0 °F - 46.0 °F 86% 30.01 in 10.0 mi Calm Calm - N/A   Clear
10:53 PM 48.9 °F - 45.0 °F 86% 30.01 in 10.0 mi Calm Calm - N/A   Clear
11:53 PM 48.0 °F - 45.0 °F 89% 30.01 in 10.0 mi NNE 3.5 mph - N/A   Clear